DLH6H LIRF-EDDM

Flight info

Callsign DLH6H
Flight time 1h 5m
Altitude 34000
Route SOVAN DCT AMTEL DCT NAXAV DCT SOTOV T101 BETOS BETOS1B
Aircraft A320/M-SDE3FGHIRWY/LB1

Departure

Time 2026-05-06 17:12
Airport Rome–Fiumicino Leonardo da Vinci International Airport (LIRF)

Arrival

Time 2026-05-06 18:17
Airport Munich Airport (EDDM)
Time Latitude Longitude Altitude Speed Heading
2026-05-06 16:25 41.79720 12.25479 14 ft 0 kts 116°
2026-05-06 17:01 41.79726 12.25463 14 ft 4 kts 110°
2026-05-06 17:01 41.79731 12.25429 14 ft 4 kts 84°
2026-05-06 17:02 41.79723 12.25402 16 ft 3 kts 28°
2026-05-06 17:02 41.79720 12.25400 16 ft 0 kts 25°
2026-05-06 17:06 41.79743 12.25415 16 ft 9 kts 26°
2026-05-06 17:06 41.79816 12.25460 14 ft 12 kts 25°
2026-05-06 17:06 41.79889 12.25504 14 ft 10 kts 25°
2026-05-06 17:07 41.79931 12.25533 14 ft 3 kts 39°
2026-05-06 17:07 41.79935 12.25587 14 ft 9 kts 104°
2026-05-06 17:07 41.79899 12.25692 14 ft 16 kts 115°
2026-05-06 17:07 41.79891 12.25827 15 ft 16 kts 39°
2026-05-06 17:08 41.79985 12.25892 16 ft 14 kts 24°
2026-05-06 17:08 41.80070 12.25943 14 ft 13 kts 24°
2026-05-06 17:08 41.80145 12.25989 14 ft 11 kts 24°
2026-05-06 17:08 41.80223 12.26038 14 ft 14 kts 25°
2026-05-06 17:09 41.80324 12.26102 14 ft 18 kts 25°
2026-05-06 17:09 41.80449 12.26167 16 ft 21 kts 10°
2026-05-06 17:09 41.80545 12.26296 16 ft 23 kts 69°
2026-05-06 17:09 41.80604 12.26512 18 ft 26 kts 69°
2026-05-06 17:10 41.80670 12.26753 15 ft 29 kts 70°
2026-05-06 17:10 41.80741 12.27006 13 ft 22 kts 59°
2026-05-06 17:10 41.80882 12.27002 15 ft 24 kts 342°
2026-05-06 17:10 41.80950 12.26908 13 ft 12 kts 244°
2026-05-06 17:11 41.80913 12.26768 14 ft 31 kts 249°
2026-05-06 17:11 41.80750 12.26183 20 ft 100 kts 250°
2026-05-06 17:11 41.80445 12.25064 18 ft 153 kts 249°
2026-05-06 17:11 41.80066 12.23605 419 ft 167 kts 249°
2026-05-06 17:12 41.79711 12.22122 1122 ft 167 kts 245°
2026-05-06 17:12 41.79309 12.20597 1654 ft 186 kts 252°
2026-05-06 17:12 41.79435 12.18779 2164 ft 211 kts 292°
2026-05-06 17:12 41.80289 12.17163 2955 ft 218 kts 305°
2026-05-06 17:13 41.81244 12.15553 3684 ft 223 kts 305°
2026-05-06 17:13 41.82206 12.13931 3910 ft 222 kts 310°
2026-05-06 17:13 41.83175 12.12301 4263 ft 225 kts 305°
2026-05-06 17:13 41.84261 12.10801 5116 ft 226 kts 321°
2026-05-06 17:14 41.85695 12.09808 5637 ft 245 kts 341°
2026-05-06 17:14 41.87426 12.09162 5996 ft 270 kts 342°
2026-05-06 17:14 41.89293 12.08479 6576 ft 284 kts 342°
2026-05-06 17:14 41.91215 12.07778 7363 ft 288 kts 342°
2026-05-06 17:15 41.93163 12.07065 8175 ft 292 kts 342°
2026-05-06 17:15 41.95134 12.06340 9023 ft 296 kts 343°
2026-05-06 17:15 41.97194 12.05962 9826 ft 302 kts 353°
2026-05-06 17:15 41.99291 12.05762 10382 ft 315 kts 353°
2026-05-06 17:16 42.01554 12.05541 10632 ft 337 kts 353°
2026-05-06 17:16 42.03935 12.05308 11193 ft 347 kts 353°
2026-05-06 17:16 42.06364 12.05076 11912 ft 352 kts 353°
2026-05-06 17:16 42.08823 12.04842 12633 ft 356 kts 354°
2026-05-06 17:17 42.11313 12.04602 13326 ft 361 kts 354°
2026-05-06 17:17 42.13745 12.04364 13971 ft 365 kts 354°
2026-05-06 17:17 42.16372 12.04103 14611 ft 369 kts 353°
2026-05-06 17:17 42.18936 12.03773 15237 ft 371 kts 348°
2026-05-06 17:18 42.21498 12.03196 15830 ft 375 kts 348°
2026-05-06 17:18 42.24090 12.02613 16437 ft 380 kts 348°
2026-05-06 17:18 42.26669 12.02036 17030 ft 384 kts 348°
2026-05-06 17:18 42.29315 12.01443 17617 ft 388 kts 348°
2026-05-06 17:19 42.31995 12.00839 18184 ft 392 kts 347°
2026-05-06 17:19 42.34699 12.00225 18687 ft 396 kts 347°
2026-05-06 17:19 42.37428 11.99604 19211 ft 399 kts 347°
2026-05-06 17:19 42.40172 11.98979 19748 ft 402 kts 347°
2026-05-06 17:20 42.42944 11.98351 20259 ft 405 kts 346°
2026-05-06 17:20 42.45736 11.97723 20776 ft 408 kts 346°
2026-05-06 17:20 42.48539 11.97095 21289 ft 410 kts 346°
2026-05-06 17:20 42.51364 11.96459 21794 ft 413 kts 346°
2026-05-06 17:21 42.54171 11.95822 22286 ft 415 kts 345°
2026-05-06 17:21 42.57022 11.95174 22781 ft 417 kts 345°
2026-05-06 17:21 42.59895 11.94524 23255 ft 420 kts 345°
2026-05-06 17:21 42.62788 11.93872 23680 ft 423 kts 345°
2026-05-06 17:22 42.65706 11.93213 24032 ft 427 kts 345°
2026-05-06 17:22 42.68642 11.92550 24417 ft 429 kts 345°
2026-05-06 17:22 42.71599 11.91877 24792 ft 432 kts 345°
2026-05-06 17:22 42.74569 11.91199 25156 ft 434 kts 345°
2026-05-06 17:23 42.77556 11.90518 25520 ft 437 kts 345°
2026-05-06 17:23 42.80563 11.89830 25889 ft 439 kts 343°
2026-05-06 17:23 42.83460 11.88804 26209 ft 435 kts 334°
2026-05-06 17:23 42.86218 11.87178 26551 ft 430 kts 325°
2026-05-06 17:24 42.88853 11.85237 26905 ft 432 kts 324°
2026-05-06 17:24 42.91505 11.83286 27264 ft 434 kts 324°
2026-05-06 17:24 42.94167 11.81335 27616 ft 436 kts 324°
2026-05-06 17:24 42.96854 11.79370 27952 ft 439 kts 324°
2026-05-06 17:25 42.99552 11.77404 28291 ft 441 kts 324°
2026-05-06 17:25 43.02214 11.75464 28628 ft 443 kts 324°
2026-05-06 17:25 43.04956 11.73459 29048 ft 444 kts 324°
2026-05-06 17:25 43.07679 11.71456 29422 ft 445 kts 324°
2026-05-06 17:26 43.10410 11.69442 29768 ft 447 kts 324°
2026-05-06 17:26 43.13153 11.67419 30105 ft 449 kts 324°
2026-05-06 17:26 43.15912 11.65382 30355 ft 451 kts 324°
2026-05-06 17:26 43.18691 11.63353 30600 ft 455 kts 327°
2026-05-06 17:27 43.21658 11.61721 30828 ft 466 kts 336°
2026-05-06 17:27 43.24854 11.60712 31084 ft 477 kts 345°
2026-05-06 17:27 43.28150 11.60327 31302 ft 484 kts 351°
2026-05-06 17:27 43.31513 11.60060 31622 ft 484 kts 351°
2026-05-06 17:28 43.34871 11.59785 31965 ft 484 kts 350°
2026-05-06 17:28 43.38227 11.59505 32287 ft 483 kts 350°
2026-05-06 17:28 43.41583 11.59222 32598 ft 483 kts 350°
2026-05-06 17:28 43.44941 11.58939 32930 ft 483 kts 350°
2026-05-06 17:29 43.48295 11.58656 33240 ft 483 kts 350°
2026-05-06 17:29 43.51611 11.58375 33542 ft 483 kts 350°
2026-05-06 17:29 43.55008 11.58089 33856 ft 483 kts 350°
2026-05-06 17:30 43.61616 11.57542 33952 ft 473 kts 350°
2026-05-06 17:30 43.68157 11.56992 33946 ft 470 kts 350°
2026-05-06 17:31 43.74689 11.56429 33946 ft 470 kts 350°
2026-05-06 17:31 43.81220 11.55867 33944 ft 470 kts 350°
2026-05-06 17:32 43.87701 11.55313 33954 ft 470 kts 350°
2026-05-06 17:32 43.94231 11.54753 33941 ft 470 kts 350°
2026-05-06 17:33 44.00768 11.54193 33921 ft 471 kts 350°
2026-05-06 17:33 44.07311 11.53628 33932 ft 472 kts 349°
2026-05-06 17:34 44.13832 11.53069 33908 ft 474 kts 349°
2026-05-06 17:34 44.20424 11.52505 33899 ft 475 kts 349°
2026-05-06 17:35 44.27022 11.51936 33893 ft 475 kts 349°
2026-05-06 17:35 44.33632 11.51362 33873 ft 476 kts 349°
2026-05-06 17:36 44.43511 11.50506 33879 ft 476 kts 349°
2026-05-06 17:36 44.50123 11.49932 33871 ft 476 kts 349°
2026-05-06 17:37 44.56730 11.49356 33872 ft 475 kts 349°
2026-05-06 17:37 44.63331 11.48772 33871 ft 475 kts 349°
2026-05-06 17:38 44.69873 11.48199 33884 ft 474 kts 350°
2026-05-06 17:38 44.76450 11.47628 33890 ft 473 kts 349°
2026-05-06 17:39 44.83020 11.47050 33906 ft 473 kts 349°
2026-05-06 17:39 44.89586 11.46469 33910 ft 473 kts 349°
2026-05-06 17:40 44.96116 11.45891 33890 ft 474 kts 349°
2026-05-06 17:40 45.02698 11.45315 33887 ft 474 kts 349°
2026-05-06 17:41 45.09276 11.44731 33876 ft 475 kts 349°
2026-05-06 17:41 45.15875 11.44135 33865 ft 475 kts 349°
2026-05-06 17:42 45.22437 11.43551 33884 ft 476 kts 349°
2026-05-06 17:42 45.29054 11.42956 33879 ft 477 kts 349°
2026-05-06 17:43 45.35674 11.42358 33877 ft 477 kts 349°
2026-05-06 17:43 45.42304 11.41760 33884 ft 477 kts 349°
2026-05-06 17:44 45.48933 11.41173 33873 ft 478 kts 349°
2026-05-06 17:44 45.55518 11.40584 33876 ft 477 kts 349°
2026-05-06 17:45 45.62147 11.39976 33902 ft 477 kts 349°
2026-05-06 17:45 45.68781 11.39365 33902 ft 478 kts 349°
2026-05-06 17:46 45.75381 11.38771 33901 ft 479 kts 349°
2026-05-06 17:46 45.82025 11.38176 33907 ft 479 kts 349°
2026-05-06 17:47 45.88667 11.37562 33915 ft 478 kts 349°
2026-05-06 17:47 45.95317 11.36947 33912 ft 478 kts 349°
2026-05-06 17:48 46.01945 11.36339 33910 ft 477 kts 349°
2026-05-06 17:48 46.08523 11.35736 33902 ft 476 kts 349°
2026-05-06 17:49 46.15138 11.35128 33905 ft 476 kts 349°
2026-05-06 17:49 46.21751 11.34514 33895 ft 476 kts 349°
2026-05-06 17:50 46.28375 11.33904 33881 ft 476 kts 349°
2026-05-06 17:50 46.34945 11.33292 33881 ft 476 kts 349°
2026-05-06 17:51 46.41557 11.32669 33860 ft 476 kts 349°
2026-05-06 17:51 46.48129 11.31821 33900 ft 470 kts 343°
2026-05-06 17:52 46.54571 11.30330 33874 ft 470 kts 343°
2026-05-06 17:52 46.61006 11.28841 33870 ft 470 kts 343°
2026-05-06 17:53 46.67396 11.27359 33872 ft 470 kts 343°
2026-05-06 17:53 46.73850 11.25862 33881 ft 469 kts 343°
2026-05-06 17:54 46.80316 11.24349 33885 ft 476 kts 343°
2026-05-06 17:54 46.86897 11.22796 33868 ft 480 kts 344°
2026-05-06 17:55 46.93503 11.21301 33852 ft 484 kts 348°
2026-05-06 17:55 47.00260 11.21435 33409 ft 490 kts 357°
2026-05-06 17:56 47.03646 11.21671 32661 ft 489 kts 357°
2026-05-06 17:56 47.07017 11.21901 31927 ft 488 kts 357°
2026-05-06 17:56 47.10410 11.22127 31193 ft 488 kts 357°
2026-05-06 17:56 47.13800 11.22353 30497 ft 487 kts 357°
2026-05-06 17:57 47.17182 11.22582 29792 ft 487 kts 357°
2026-05-06 17:57 47.20563 11.22813 29001 ft 486 kts 357°
2026-05-06 17:57 47.23939 11.23044 28226 ft 485 kts 357°
2026-05-06 17:57 47.27255 11.23559 27523 ft 488 kts
2026-05-06 17:58 47.30567 11.24616 26794 ft 486 kts
2026-05-06 17:58 47.33865 11.25685 26045 ft 483 kts
2026-05-06 17:58 47.37131 11.26752 25351 ft 480 kts 10°
2026-05-06 17:58 47.40391 11.27820 24674 ft 477 kts 10°
2026-05-06 17:59 47.43578 11.28863 24019 ft 474 kts 11°
2026-05-06 17:59 47.46813 11.29918 23357 ft 471 kts 11°
2026-05-06 17:59 47.49936 11.30935 22656 ft 467 kts 11°
2026-05-06 17:59 47.53138 11.31983 22156 ft 457 kts 11°
2026-05-06 18:00 47.56177 11.32986 21689 ft 449 kts 11°
2026-05-06 18:00 47.59204 11.33990 21238 ft 442 kts 11°
2026-05-06 18:00 47.62113 11.34952 20783 ft 435 kts 11°
2026-05-06 18:00 47.65066 11.35926 20323 ft 428 kts 11°
2026-05-06 18:01 47.67871 11.36850 19896 ft 422 kts 12°
2026-05-06 18:01 47.70761 11.37801 19452 ft 416 kts 12°
2026-05-06 18:01 47.73566 11.38725 19016 ft 411 kts 12°
2026-05-06 18:01 47.76308 11.39631 18597 ft 406 kts 12°
2026-05-06 18:02 47.79053 11.40537 18174 ft 402 kts 12°
2026-05-06 18:02 47.81764 11.41435 17696 ft 398 kts 12°
2026-05-06 18:02 47.84456 11.42329 17221 ft 395 kts 12°
2026-05-06 18:02 47.87131 11.43218 16704 ft 393 kts 12°
2026-05-06 18:03 47.89744 11.44090 16198 ft 392 kts 11°
2026-05-06 18:03 47.92398 11.44974 15690 ft 391 kts 11°
2026-05-06 18:03 47.95048 11.45852 15194 ft 389 kts 11°
2026-05-06 18:03 47.97671 11.46723 14701 ft 387 kts 11°
2026-05-06 18:04 48.00291 11.47597 14219 ft 385 kts 11°
2026-05-06 18:04 48.02900 11.48470 13743 ft 383 kts 11°
2026-05-06 18:04 48.05496 11.49341 13218 ft 381 kts 10°
2026-05-06 18:04 48.08076 11.50212 12697 ft 379 kts 11°
2026-05-06 18:05 48.10638 11.51078 12170 ft 376 kts 10°
2026-05-06 18:05 48.13174 11.51932 11812 ft 368 kts 10°
2026-05-06 18:05 48.15594 11.52744 11570 ft 359 kts 10°
2026-05-06 18:05 48.17992 11.53552 11309 ft 353 kts 11°
2026-05-06 18:06 48.20316 11.54899 11058 ft 354 kts 28°
2026-05-06 18:06 48.22208 11.57109 10860 ft 355 kts 46°
2026-05-06 18:06 48.23605 11.60027 10822 ft 334 kts 64°
2026-05-06 18:06 48.24385 11.63203 10832 ft 321 kts 81°
2026-05-06 18:07 48.24689 11.66488 10835 ft 316 kts 86°
2026-05-06 18:07 48.24942 11.69756 10837 ft 315 kts 86°
2026-05-06 18:07 48.25196 11.73016 10837 ft 314 kts 86°
2026-05-06 18:07 48.25450 11.76278 10690 ft 317 kts 86°
2026-05-06 18:08 48.25702 11.79536 10148 ft 313 kts 86°
2026-05-06 18:08 48.25952 11.82756 9611 ft 309 kts 86°
2026-05-06 18:08 48.26195 11.85929 9032 ft 305 kts 86°
2026-05-06 18:08 48.26430 11.89040 8469 ft 303 kts 86°
2026-05-06 18:09 48.26664 11.92170 7872 ft 301 kts 86°
2026-05-06 18:09 48.26897 11.95280 7361 ft 299 kts 86°
2026-05-06 18:09 48.27129 11.98379 6965 ft 299 kts 85°
2026-05-06 18:09 48.27361 12.01483 6576 ft 300 kts 85°
2026-05-06 18:10 48.27592 12.04568 6183 ft 296 kts 85°
2026-05-06 18:10 48.28037 12.07573 5755 ft 296 kts 64°
2026-05-06 18:10 48.29245 12.10013 5361 ft 291 kts 38°
2026-05-06 18:10 48.31016 12.11380 4965 ft 286 kts 11°
2026-05-06 18:11 48.32963 12.11873 4571 ft 282 kts
2026-05-06 18:11 48.34892 12.11828 4158 ft 275 kts 341°
2026-05-06 18:11 48.36469 12.10560 3983 ft 251 kts 310°
2026-05-06 18:11 48.37208 12.08383 3985 ft 220 kts 273°
2026-05-06 18:12 48.36855 12.06361 4006 ft 195 kts 241°
2026-05-06 18:12 48.36251 12.04671 3989 ft 176 kts 259°
2026-05-06 18:12 48.36153 12.02872 3998 ft 170 kts 264°
2026-05-06 18:12 48.36041 12.01121 3998 ft 166 kts 264°
2026-05-06 18:13 48.35917 11.99407 4002 ft 164 kts 263°
2026-05-06 18:13 48.35787 11.97700 3949 ft 165 kts 263°
2026-05-06 18:13 48.35654 11.95984 3635 ft 165 kts 264°
2026-05-06 18:13 48.35525 11.94291 3387 ft 161 kts 263°
2026-05-06 18:14 48.35400 11.92631 3169 ft 159 kts 263°
2026-05-06 18:14 48.35275 11.90982 2961 ft 158 kts 263°
2026-05-06 18:14 48.35153 11.89365 2740 ft 160 kts 263°
2026-05-06 18:14 48.35031 11.87755 2532 ft 147 kts 263°
2026-05-06 18:15 48.34913 11.86248 2261 ft 142 kts 262°
2026-05-06 18:15 48.34791 11.84797 2051 ft 138 kts 263°
2026-05-06 18:15 48.34703 11.83398 1930 ft 134 kts 261°
2026-05-06 18:15 48.34589 11.82004 1769 ft 134 kts 262°
2026-05-06 18:16 48.34484 11.80614 1586 ft 136 kts 263°
2026-05-06 18:16 48.34390 11.79260 1496 ft 123 kts 264°
2026-05-06 18:16 48.34307 11.78215 1477 ft 82 kts 263°
2026-05-06 18:16 48.34257 11.77552 1480 ft 53 kts 264°
2026-05-06 18:17 48.34296 11.77094 1474 ft 38 kts 295°
2026-05-06 18:17 48.34382 11.76825 1479 ft 14 kts 295°
2026-05-06 18:17 48.34415 11.76728 1483 ft 4 kts 308°
2026-05-06 18:17 48.34443 11.76704 1482 ft 5 kts 345°
2026-05-06 18:18 48.34450 11.76704 1483 ft 0 kts 358°
2026-05-06 18:18 48.34479 11.76703 1485 ft 12 kts 358°
2026-05-06 18:18 48.34570 11.76734 1474 ft 15 kts 60°
2026-05-06 18:18 48.34589 11.76909 1485 ft 21 kts 82°
2026-05-06 18:19 48.34610 11.77162 1472 ft 27 kts 83°
2026-05-06 18:19 48.34629 11.77423 1483 ft 25 kts 83°
2026-05-06 18:19 48.34648 11.77670 1483 ft 23 kts 83°
2026-05-06 18:19 48.34666 11.77899 1485 ft 21 kts 83°
2026-05-06 18:20 48.34683 11.78110 1479 ft 20 kts 83°
2026-05-06 18:20 48.34698 11.78304 1481 ft 18 kts 83°
2026-05-06 18:20 48.34712 11.78482 1475 ft 16 kts 83°
2026-05-06 18:20 48.34725 11.78642 1472 ft 15 kts 82°
2026-05-06 18:21 48.34738 11.78784 1479 ft 13 kts 84°
2026-05-06 18:21 48.34746 11.78930 1485 ft 18 kts 85°
2026-05-06 18:21 48.34762 11.79165 1485 ft 23 kts 83°
2026-05-06 18:21 48.34780 11.79396 1483 ft 22 kts 83°
2026-05-06 18:22 48.34843 11.79553 1476 ft 18 kts
2026-05-06 18:22 48.34935 11.79547 1473 ft 11 kts 353°
2026-05-06 18:22 48.35001 11.79535 1476 ft 9 kts 353°
2026-05-06 18:22 48.35057 11.79524 1480 ft 8 kts 353°
2026-05-06 18:23 48.35123 11.79598 1479 ft 20 kts 84°
2026-05-06 18:23 48.35141 11.79850 1479 ft 25 kts 82°
2026-05-06 18:23 48.35162 11.80095 1478 ft 21 kts 83°
2026-05-06 18:23 48.35226 11.80153 1475 ft 8 kts 349°
2026-05-06 18:24 48.35314 11.80132 1476 ft 20 kts 352°
2026-05-06 18:24 48.35466 11.80101 1481 ft 22 kts 353°
2026-05-06 18:24 48.35591 11.80077 1485 ft 13 kts 353°
2026-05-06 18:24 48.35620 11.80071 1476 ft 2 kts 353°
2026-05-06 18:25 48.35629 11.80070 1480 ft 1 kts 353°
2026-05-06 18:25 48.35649 11.80066 1482 ft 8 kts 353°
2026-05-06 18:25 48.35669 11.79985 1485 ft 11 kts 260°
2026-05-06 18:25 48.35664 11.79927 1485 ft 0 kts 263°
2026-05-06 18:27 48.35666 11.79955 1483 ft 0 kts 263°